EW9559 Weather Reports


Display with metric or nautical units.
time (UTC)temp
F
wind
direction
speed
MPH
gust
MPH
rain 1hr
in
rain 24hr
in
rain mn
in
humidity
%
barometer
mb
20260904230030 62 247 0.0 2.0 0.00 0.03 0.03 69 1017.9
20260904224532 63 236 0.0 4.0 0.00 0.03 0.03 64 1017.9
20260904223031 66 215 0.0 2.0 0.00 0.03 0.03 61 1017.7
20260904221531 66 268 0.0 1.0 0.00 0.03 0.03 62 1017.6
20260904220031 65 290 0.0 1.0 0.00 0.03 0.03 66 1017.6
20260904214532 64 292 0.0 0.0 0.00 0.03 0.03 67 1017.5
20260904213031 63 292 0.0 0.0 0.00 0.03 0.03 66 1017.4
20260904211534 64 292 0.0 0.0 0.00 0.03 0.03 68 1017.4
20260904210028 64 292 0.0 0.0 0.00 0.03 0.03 64 1017.3
20260904204533 66 292 0.0 0.0 0.00 0.03 0.03 61 1017.4
20260904203107 65 299 0.0 0.0 0.02 0.03 0.03 61 1017.4
20260904201530 64 315 0.0 0.0 0.02 0.03 0.03 65 1017.5
20260904200031 64 315 0.0 0.0 0.02 0.03 0.03 65 1017.6
20260904194530 64 287 0.0 1.0 0.02 0.03 0.01 66 1017.8
20260904193029 65 256 0.0 3.0 0.00 0.01 0.01 67 1017.8
20260904191530 64 266 0.0 2.0 0.00 0.01 0.01 68 1018.0
20260904184606 61 270 0.0 1.0 0.00 0.01 0.01 73 1018.1
20260904183105 59 224 0.0 1.0 0.00 0.01 0.01 78 1018.1
20260904180029 58 225 0.0 0.0 0.00 0.01 0.01 80 1018.0
20260904174530 58 225 0.0 0.0 0.00 0.01 0.01 79 1018.1
20260904173031 58 225 0.0 0.0 0.00 0.01 0.01 80 1018.0
20260904171603 57 225 0.0 1.0 0.00 0.01 0.01 82 1018.0
20260904164529 56 225 0.0 0.0 0.00 0.01 0.01 83 1017.9
20260904163103 56 225 0.0 0.0 0.00 0.01 0.01 85 1017.9
20260904161531 56 225 0.0 0.0 0.00 0.01 0.01 87 1017.9
20260904160032 56 225 0.0 0.0 0.00 0.01 0.01 89 1017.9
20260904154529 56 225 0.0 0.0 0.00 0.01 0.01 94 1017.8
20260904153103 53 225 0.0 0.0 0.00 0.01 0.01 96 1017.7
20260904151529 52 225 0.0 0.0 0.00 0.01 0.01 96 1017.5
20260904150029 51 225 0.0 2.0 0.00 0.01 0.01 96 1017.4
20260904144530 50 234 0.0 3.0 0.00 0.01 0.01 96 1017.3
20260904143033 50 270 0.0 1.0 0.00 0.01 0.01 96 1017.2
20260904141602 50 270 0.0 0.0 0.01 0.01 0.01 96 1017.0
20260904134531 49 270 0.0 0.0 0.01 0.01 0.01 95 1016.7
20260904133031 49 270 0.0 0.0 0.01 0.01 0.00 95 1016.6
20260904131529 49 270 0.0 0.0 0.00 0.00 0.00 95 1016.5
20260904130106 49 270 0.0 0.0 0.00 0.00 0.00 95 1016.3
20260904124645 49 270 0.0 1.0 0.00 0.00 0.00 95 1016.3
20260904123029 49 270 0.0 0.0 0.00 0.00 0.00 95 1016.3
20260904121531 49 270 0.0 1.0 0.00 0.00 0.00 94 1016.1
20260904114530 49 270 0.0 1.0 0.00 0.00 0.00 94 1015.9
20260904113033 49 270 0.0 1.0 0.00 0.00 0.00 94 1015.8
20260904111655 49 270 0.0 0.0 0.00 0.00 0.00 94 1015.7
20260904110028 50 270 0.0 0.0 0.00 0.00 0.00 94 1015.6
20260904101530 49 270 0.0 1.0 0.00 0.00 0.00 94 1015.2
20260904100030 49 270 0.0 1.0 0.00 0.00 0.00 93 1015.0
20260904094532 49 270 0.0 0.0 0.00 0.00 0.00 93 1015.0
20260904093028 49 270 0.0 0.0 0.00 0.00 0.00 93 1014.9
20260904091626 0 0 0.0 0.0 0.00 0.00 0.00 100
20260904090030 49 270 0.0 1.0 0.00 0.00 0.00 91 1014.9
20260904084603 50 270 0.0 0.0 0.00 0.00 0.00 91 1014.8
20260904083146 50 270 0.0 0.0 0.00 0.00 0.00 91 1014.7
20260904081606 50 256 0.0 2.0 0.00 0.00 0.00 90 1014.6
20260904080033 51 247 0.0 1.0 0.00 0.00 0.00 90 1014.8
20260904074530 51 247 0.0 2.0 0.00 0.00 0.00 90 1014.8
20260904073031 51 247 0.0 1.0 0.00 0.00 0.00 90 1014.8
20260904061530 51 247 0.0 0.0 0.00 0.00 0.00 89 1014.6
20260904060047 51 247 0.0 1.0 0.00 0.00 0.00 88 1014.6
20260904054531 52 247 0.0 1.0 0.00 0.00 0.00 87 1014.6
20260904053105 53 247 0.0 0.0 0.00 0.00 0.00 86 1014.5
20260904051529 53 247 0.0 2.0 0.00 0.00 0.00 86 1014.6
20260904050029 53 247 0.0 1.0 0.00 0.00 0.00 85 1014.7
20260904044529 53 247 0.0 2.0 0.00 0.00 0.00 85 1014.7
20260904043027 53 252 0.0 1.0 0.00 0.00 0.00 84 1014.6
20260904040107 54 270 0.0 1.0 0.00 0.00 0.00 84 1014.7
20260904034533 54 248 0.0 2.0 0.00 0.00 0.00 84 1014.6
20260904033028 54 249 0.0 3.0 0.00 0.00 0.00 85 1014.5
20260904030106 55 264 0.0 5.0 0.00 0.00 0.00 86 1014.2
20260904021529 56 274 0.0 3.0 0.00 0.01 0.00 84 1013.9
20260904020029 56 266 0.0 2.0 0.00 0.02 0.00 82 1013.9
20260904014542 56 268 0.0 7.0 0.00 0.12 0.00 80 1013.9
20260904010033 59 268 0.0 3.0 0.00 0.13 0.00 76 1013.9
20260904004531 60 284 0.0 3.0 0.00 0.14 0.00 76 1013.7
20260904003031 60 291 0.0 2.0 0.00 0.14 0.00 76 1013.6
20260904001529 61 286 0.0 3.0 0.00 0.16 0.00 77 1013.7
20260904000032 58 265 0.0 3.0 0.00 0.17 0.00 82 1013.8
20260903234604 57 262 0.0 7.0 0.00 0.19 0.00 83 1013.9
20260903233032 57 271 0.0 4.0 0.00 0.19 0.00 78 1014.0